�������l�o���
Date,Time,MP-1(��Sv/h),MP-2(��Sv/h),MP-3(��Sv/h),MP-4(��Sv/h),MP-5(��Sv/h),MP-6(��Sv/h),MP-7(��Sv/h),MP-8(��Sv/h),����,����(m/s),���J
2021/07/13,00:00,0.597,0.881,0.569,1.064,0.759,0.367,0.630,0.590,�k,1.7,��
2021/07/13,00:10,0.596,0.878,0.569,1.067,0.756,0.367,0.629,0.590,�k,2.3,��
2021/07/13,00:20,0.597,0.881,0.570,1.065,0.757,0.367,0.629,0.590,�k,2.0,��
2021/07/13,00:30,0.597,0.881,0.569,1.067,0.758,0.367,0.631,0.590,�k,1.7,��
2021/07/13,00:40,0.598,0.879,0.569,1.066,0.758,0.367,0.630,0.591,�k�k��,2.5,��
2021/07/13,00:50,0.597,0.878,0.572,1.066,0.757,0.366,0.630,0.590,�k�k��,2.5,��
2021/07/13,01:00,0.597,0.880,0.569,1.066,0.759,0.367,0.631,0.589,�k,3.0,��
2021/07/13,01:10,0.598,0.878,0.568,1.065,0.758,0.367,0.630,0.590,�k,3.0,��
2021/07/13,01:20,0.598,0.878,0.570,1.063,0.758,0.367,0.631,0.591,�k�k��,1.1,��
2021/07/13,01:30,0.596,0.880,0.569,1.064,0.757,0.366,0.631,0.589,�k�k��,1.7,��
2021/07/13,01:40,0.596,0.879,0.569,1.065,0.755,0.367,0.630,0.591,�k�k��,2.5,��
2021/07/13,01:50,0.597,0.879,0.570,1.067,0.757,0.367,0.629,0.592,�k�k��,2.9,��
2021/07/13,02:00,0.598,0.879,0.569,1.066,0.758,0.367,0.630,0.592,�k�k��,3.3,��
2021/07/13,02:10,0.597,0.879,0.569,1.063,0.759,0.367,0.630,0.589,�k,3.7,��
2021/07/13,02:20,0.596,0.877,0.569,1.067,0.758,0.365,0.630,0.589,�k,4.7,��
2021/07/13,02:30,0.596,0.879,0.569,1.063,0.759,0.366,0.629,0.590,�k�k��,4.9,��
2021/07/13,02:40,0.596,0.877,0.569,1.066,0.760,0.367,0.627,0.590,�k�k��,3.8,��
2021/07/13,02:50,0.597,0.879,0.568,1.065,0.758,0.366,0.629,0.589,�k�k��,3.3,��
2021/07/13,03:00,0.596,0.877,0.569,1.066,0.758,0.366,0.631,0.589,�k�k��,5.3,��
2021/07/13,03:10,0.597,0.880,0.568,1.066,0.757,0.367,0.630,0.590,�k�k��,6.0,��
2021/07/13,03:20,0.596,0.880,0.568,1.066,0.758,0.367,0.629,0.588,�k�k��,5.6,��
2021/07/13,03:30,0.594,0.878,0.568,1.064,0.755,0.367,0.631,0.588,�k�k��,5.6,��
2021/07/13,03:40,0.597,0.877,0.569,1.065,0.757,0.365,0.630,0.589,�k�k��,5.8,��
2021/07/13,03:50,0.597,0.881,0.569,1.064,0.757,0.367,0.630,0.590,�k�k��,5.3,��
2021/07/13,04:00,0.596,0.880,0.568,1.064,0.755,0.367,0.631,0.590,�k�k��,4.8,��
2021/07/13,04:10,0.596,0.879,0.570,1.067,0.758,0.365,0.629,0.590,�k�k��,5.2,��
2021/07/13,04:20,0.596,0.877,0.570,1.066,0.757,0.365,0.630,0.590,�k�k��,6.1,��
2021/07/13,04:30,0.598,0.877,0.568,1.065,0.757,0.365,0.630,0.589,�k�k��,5.6,��
2021/07/13,04:40,0.597,0.878,0.568,1.065,0.756,0.365,0.629,0.588,�k�k��,5.8,��
2021/07/13,04:50,0.595,0.877,0.566,1.064,0.755,0.364,0.629,0.590,�k�k��,5.3,��
2021/07/13,05:00,0.597,0.878,0.569,1.065,0.758,0.365,0.628,0.589,�k�k��,5.5,��
2021/07/13,05:10,0.594,0.876,0.567,1.065,0.757,0.365,0.628,0.590,�k�k��,5.2,��
2021/07/13,05:20,0.595,0.876,0.567,1.066,0.753,0.365,0.629,0.590,�k�k��,5.5,��
2021/07/13,05:30,0.594,0.878,0.569,1.066,0.756,0.364,0.628,0.589,�k�k��,4.6,��
2021/07/13,05:40,0.595,0.878,0.566,1.065,0.757,0.365,0.628,0.590,�k�k��,3.6,��
2021/07/13,05:50,0.594,0.877,0.566,1.065,0.755,0.364,0.628,0.590,�k�k��,3.8,��
2021/07/13,06:00,0.595,0.879,0.567,1.065,0.756,0.365,0.629,0.590,�k�k��,4.8,��
2021/07/13,06:10,0.595,0.877,0.566,1.067,0.755,0.364,0.627,0.589,�k�k��,5.0,��
2021/07/13,06:20,0.595,0.877,0.566,1.065,0.757,0.364,0.627,0.591,�k�k��,3.8,��
2021/07/13,06:30,0.595,0.877,0.567,1.064,0.755,0.364,0.627,0.590,�k�k��,3.7,��
2021/07/13,06:40,0.596,0.875,0.570,1.065,0.755,0.365,0.629,0.589,�k,3.0,��
2021/07/13,06:50,0.595,0.876,0.569,1.065,0.755,0.364,0.627,0.591,�k,3.2,��
2021/07/13,07:00,0.594,0.875,0.565,1.063,0.754,0.364,0.630,0.589,�k,3.8,��
2021/07/13,07:10,0.593,0.876,0.566,1.066,0.756,0.364,0.628,0.589,�k,4.8,��
2021/07/13,07:20,0.593,0.876,0.567,1.064,0.756,0.363,0.629,0.588,�k�k��,4.5,��
2021/07/13,07:30,0.594,0.878,0.567,1.066,0.755,0.363,0.627,0.587,�k�k��,5.8,��
2021/07/13,07:40,0.592,0.876,0.568,1.066,0.754,0.363,0.626,0.589,�k,5.2,��
2021/07/13,07:50,0.593,0.874,0.566,1.065,0.755,0.363,0.628,0.588,�k,5.5,��
2021/07/13,08:00,0.592,0.874,0.566,1.065,0.755,0.363,0.627,0.588,�k,6.6,��
2021/07/13,08:10,0.593,0.873,0.567,1.063,0.754,0.362,0.626,0.587,�k,6.3,��
2021/07/13,08:20,0.592,0.872,0.564,1.065,0.753,0.364,0.628,0.589,�k,4.7,��
2021/07/13,08:30,0.593,0.876,0.565,1.064,0.755,0.362,0.627,0.588,�k,4.0,��
2021/07/13,08:40,0.591,0.875,0.565,1.066,0.753,0.365,0.628,0.588,�k,3.4,��
2021/07/13,08:50,0.594,0.874,0.564,1.064,0.756,0.364,0.628,0.589,�k,3.9,��
2021/07/13,09:00,0.594,0.874,0.565,1.066,0.756,0.364,0.628,0.588,�k,3.6,��
2021/07/13,09:10,0.595,0.872,0.567,1.064,0.754,0.363,0.627,0.587,�k�k��,3.9,��
2021/07/13,09:20,0.594,0.873,0.567,1.066,0.755,0.364,0.628,0.587,�k�k��,3.8,��
2021/07/13,09:30,0.596,0.873,0.565,1.065,0.756,0.364,0.628,0.587,�k�k��,4.4,��
2021/07/13,09:40,0.593,0.874,0.563,1.064,0.755,0.364,0.628,0.587,�k�k��,6.2,��
2021/07/13,09:50,0.596,0.863,0.564,1.064,0.756,0.363,0.628,0.587,�k,7.1,��
2021/07/13,10:00,0.595,0.854,0.564,1.065,0.754,0.363,0.629,0.587,�k�k��,6.9,��
2021/07/13,10:10,0.594,0.863,0.564,1.063,0.755,0.363,0.628,0.587,�k�k��,6.6,��
2021/07/13,10:20,0.595,0.873,0.565,1.066,0.757,0.364,0.628,0.587,�k�k��,6.0,��
2021/07/13,10:30,0.593,0.873,0.565,1.064,0.755,0.363,0.627,0.588,�k�k��,6.1,��
2021/07/13,10:40,0.594,0.871,0.565,1.063,0.755,0.363,0.627,0.586,�k�k��,6.1,��
2021/07/13,10:50,0.595,0.872,0.566,1.062,0.755,0.364,0.628,0.587,�k�k��,5.6,��
2021/07/13,11:00,0.593,0.874,0.566,1.064,0.754,0.364,0.629,0.586,�k,5.9,�L
2021/07/13,11:10,0.594,0.875,0.567,1.067,0.756,0.365,0.626,0.587,�k�k��,6.0,��
2021/07/13,11:20,0.594,0.875,0.565,1.066,0.756,0.365,0.628,0.587,�k�k��,6.3,�L
2021/07/13,11:30,0.591,0.875,0.564,1.065,0.756,0.363,0.627,0.588,�k�k��,6.9,��
2021/07/13,11:40,0.594,0.875,0.564,1.064,0.756,0.364,0.626,0.587,�k,5.9,��
2021/07/13,11:50,0.593,0.870,0.562,1.064,0.756,0.364,0.627,0.588,�k,5.1,��
2021/07/13,12:00,0.594,0.875,0.566,1.066,0.755,0.364,0.627,0.588,�k�k��,5.6,��
2021/07/13,12:10,0.596,0.877,0.566,1.065,0.754,0.365,0.628,0.587,�k�k��,4.9,��
2021/07/13,12:20,0.596,0.879,0.565,1.067,0.755,0.366,0.629,0.587,�k��,5.1,��
2021/07/13,12:30,0.596,0.879,0.566,1.067,0.757,0.364,0.629,0.587,�k�k��,5.8,��
2021/07/13,12:40,0.596,0.879,0.567,1.065,0.755,0.366,0.630,0.588,�k�k��,5.1,��
2021/07/13,12:50,0.598,0.880,0.567,1.067,0.756,0.365,0.630,0.588,�k,5.1,��
2021/07/13,13:00,0.595,0.877,0.567,1.066,0.756,0.366,0.628,0.588,�k�k��,4.6,��
2021/07/13,13:10,0.596,0.880,0.567,1.067,0.757,0.365,0.629,0.587,�k�k��,5.5,��
2021/07/13,13:20,0.597,0.877,0.568,1.065,0.757,0.365,0.628,0.589,�k�k��,7.0,��
2021/07/13,13:30,0.594,0.878,0.567,1.064,0.758,0.364,0.630,0.589,�k�k��,8.3,��
2021/07/13,13:40,0.596,0.876,0.569,1.066,0.757,0.365,0.628,0.589,�k�k��,8.4,��
2021/07/13,13:50,0.596,0.878,0.569,1.064,0.757,0.365,0.630,0.588,�k�k��,8.1,��
2021/07/13,14:00,0.596,0.878,0.569,1.065,0.759,0.364,0.628,0.587,�k,6.6,��
2021/07/13,14:10,0.596,0.879,0.568,1.065,0.760,0.365,0.629,0.588,�k,6.5,��
2021/07/13,14:20,0.599,0.880,0.566,1.065,0.759,0.364,0.628,0.589,�k�k��,5.4,��
2021/07/13,14:30,0.597,0.881,0.568,1.066,0.759,0.365,0.628,0.589,�k,5.8,��
2021/07/13,14:40,0.596,0.880,0.569,1.067,0.758,0.365,0.628,0.588,�k,5.6,��
2021/07/13,14:50,0.599,0.879,0.568,1.067,0.759,0.365,0.629,0.587,�k�k��,6.0,��
2021/07/13,15:00,0.597,0.879,0.569,1.068,0.760,0.365,0.628,0.590,�k�k��,5.9,��
2021/07/13,15:10,0.597,0.880,0.567,1.065,0.759,0.365,0.629,0.588,�k�k��,6.2,��
2021/07/13,15:20,0.596,0.884,0.567,1.064,0.758,0.366,0.629,0.587,�k�k��,5.4,��
2021/07/13,15:30,0.596,0.882,0.568,1.068,0.758,0.363,0.628,0.589,�k,6.0,��
2021/07/13,15:40,0.596,0.881,0.567,1.067,0.760,0.364,0.628,0.586,�k�k��,6.1,��
2021/07/13,15:50,0.597,0.882,0.569,1.068,0.758,0.365,0.630,0.586,�k�k��,6.2,��
2021/07/13,16:00,0.597,0.882,0.567,1.068,0.760,0.363,0.626,0.590,�k�k��,5.4,��
2021/07/13,16:10,0.597,0.882,0.567,1.070,0.759,0.365,0.628,0.588,�k�k��,5.0,��
2021/07/13,16:20,0.597,0.880,0.569,1.071,0.757,0.365,0.628,0.589,�k�k��,5.1,��
2021/07/13,16:30,0.595,0.881,0.568,1.068,0.758,0.365,0.625,0.588,�k�k��,4.6,��
2021/07/13,16:40,0.596,0.882,0.568,1.072,0.758,0.364,0.627,0.589,�k,4.3,��
2021/07/13,16:50,0.595,0.881,0.570,1.070,0.759,0.364,0.629,0.587,�k,3.5,��
2021/07/13,17:00,0.597,0.882,0.569,1.071,0.761,0.364,0.627,0.588,�k�k��,3.7,��
2021/07/13,17:10,0.596,0.881,0.567,1.070,0.760,0.365,0.628,0.590,�k,5.0,��
2021/07/13,17:20,0.597,0.882,0.568,1.073,0.760,0.363,0.629,0.589,�k,5.1,��
2021/07/13,17:30,0.595,0.882,0.569,1.070,0.760,0.364,0.629,0.590,�k�k��,5.0,��
2021/07/13,17:40,0.598,0.881,0.568,1.071,0.760,0.365,0.628,0.589,�k�k��,4.6,��
2021/07/13,17:50,0.596,0.881,0.567,1.071,0.760,0.363,0.629,0.590,�k,4.3,��
2021/07/13,18:00,0.596,0.883,0.568,1.069,0.760,0.364,0.630,0.590,�k,3.7,��
2021/07/13,18:10,0.593,0.881,0.568,1.071,0.760,0.365,0.628,0.590,�k,3.5,��
2021/07/13,18:20,0.597,0.880,0.568,1.070,0.761,0.364,0.629,0.587,�k,3.8,��
2021/07/13,18:30,0.596,0.882,0.568,1.072,0.761,0.365,0.627,0.590,�k�k��,3.6,��
2021/07/13,18:40,0.597,0.883,0.569,1.073,0.759,0.364,0.628,0.588,�k�k��,4.0,��
2021/07/13,18:50,0.597,0.883,0.571,1.072,0.761,0.364,0.628,0.591,�k�k��,4.1,��
2021/07/13,19:00,0.595,0.882,0.569,1.071,0.759,0.365,0.630,0.591,�k�k��,4.6,��
2021/07/13,19:10,0.594,0.883,0.568,1.074,0.760,0.365,0.630,0.589,�k�k��,3.6,��
2021/07/13,19:20,0.597,0.884,0.568,1.073,0.759,0.364,0.629,0.592,�k�k��,3.5,��
2021/07/13,19:30,0.593,0.884,0.570,1.072,0.760,0.364,0.631,0.591,�k�k��,3.4,��
2021/07/13,19:40,0.593,0.884,0.570,1.070,0.759,0.365,0.631,0.590,�k�k��,3.8,��
2021/07/13,19:50,0.595,0.883,0.569,1.071,0.761,0.365,0.630,0.590,�k�k��,4.0,��
2021/07/13,20:00,0.594,0.884,0.570,1.072,0.759,0.364,0.630,0.591,�k�k��,3.7,��
2021/07/13,20:10,0.596,0.883,0.569,1.071,0.761,0.364,0.630,0.591,�k�k��,3.9,��
2021/07/13,20:20,0.594,0.885,0.570,1.072,0.761,0.365,0.628,0.591,�k�k��,3.8,��
2021/07/13,20:30,0.594,0.884,0.569,1.071,0.762,0.366,0.629,0.590,�k�k��,4.4,��
2021/07/13,20:40,0.594,0.884,0.569,1.072,0.761,0.365,0.629,0.590,�k,4.4,��
2021/07/13,20:50,0.594,0.885,0.569,1.070,0.761,0.366,0.629,0.590,�k�k��,5.0,��
2021/07/13,21:00,0.594,0.885,0.570,1.071,0.762,0.366,0.629,0.591,�k,4.5,��
2021/07/13,21:10,0.595,0.886,0.570,1.069,0.761,0.365,0.629,0.591,�k,4.7,��
2021/07/13,21:20,0.595,0.885,0.571,1.072,0.764,0.365,0.630,0.592,�k,4.5,��
2021/07/13,21:30,0.595,0.886,0.568,1.072,0.763,0.366,0.628,0.591,�k�k��,4.9,�L
2021/07/13,21:40,0.596,0.884,0.568,1.070,0.763,0.365,0.631,0.592,�k�k��,4.0,��
2021/07/13,21:50,0.595,0.883,0.570,1.073,0.761,0.364,0.630,0.591,�k�k��,3.8,��
2021/07/13,22:00,0.594,0.882,0.569,1.070,0.762,0.365,0.631,0.591,�k�k��,2.9,��
2021/07/13,22:10,0.594,0.883,0.569,1.072,0.763,0.365,0.630,0.590,�k�k��,2.3,��
2021/07/13,22:20,0.595,0.884,0.569,1.071,0.762,0.365,0.630,0.590,�k�k��,1.9,��
2021/07/13,22:30,0.592,0.883,0.570,1.072,0.761,0.364,0.629,0.590,�k,3.5,��
2021/07/13,22:40,0.593,0.883,0.570,1.073,0.761,0.365,0.628,0.590,�k,4.7,��
2021/07/13,22:50,0.595,0.883,0.570,1.072,0.761,0.365,0.629,0.591,�k,4.0,�L
2021/07/13,23:00,0.594,0.884,0.569,1.073,0.762,0.366,0.627,0.591,�k,4.1,�L
2021/07/13,23:10,0.593,0.882,0.571,1.073,0.760,0.364,0.629,0.592,�k,4.3,�L
2021/07/13,23:20,0.593,0.881,0.568,1.071,0.762,0.363,0.628,0.590,�k,3.3,��
2021/07/13,23:30,0.592,0.880,0.568,1.072,0.762,0.365,0.628,0.591,�k,3.2,��
2021/07/13,23:40,0.591,0.879,0.566,1.070,0.760,0.364,0.630,0.591,�k�k��,2.7,��
2021/07/13,23:50,0.592,0.881,0.567,1.072,0.761,0.364,0.629,0.591,�k,3.2,��
